PEGASUS DEB, 39322

Orbit data source: Space-Track

PEGASUS DEB, 39322 is space debris in LEO originally from a launch on Thu, 19 May 1994 UTC launched from the Air Force Western Test Range (AFWTR). Debris objects in space refer to the collection of defunct objects orbiting the Earth. Examples of debris include non-operational satellites, rocket bodies, and fragments generated from explosions, collisions, or faulty payload assembly.

Loading next visibility...
Identifier
39322, 1994-029AFH
Orbit
LEO
Country
Flag of USUS
Related business
Manufacturer
Unknown
Mission
Spacecraft
Bus & Motor
Unknown
Mass
Unknown
Launch date (UTC)
1994-05-19 (32 years ago)
Launch vehicle
Unknown
Launch site
Air Force Western Test Range (AFWTR)
Object type
Payload
Rocket body
Debris
Shape & HBR
Unknown shape, 0.1 m
Radar Cross Section
Small (<0.1 m²)

Expand to show TLE details & history
Last TLE update: 2 days ago

TLE from 2 days ago
0 PEGASUS DEB
1 39322U 94029AFH 26172.57482928  .00003083  00000-0  52581-3 0  9994
2 39322  81.9252 117.0950 0231683 327.4926  31.2173 14.52586444683464
Epoch: 2026-06-21T13:47Z
TLE epoch observation values (Epoch: 2026-06-21T13:47:45.249Z)
Latitude
-0.00012°
Longitude
0.38331°
Altitude
580.636 km
Speed
7.644 km/s
True Right ascension
07h 48m 22s
True Declination
0° 00' 00"
Sunlit
Object was in daylight at epoch
Visualization orbit readout
Latitude
Unknown
Longitude
Unknown
Altitude
Unknown
Speed
Unknown
Apparent Right ascension
Unknown
Apparent Declination
Unknown
Sunlit
N/A
Visualization observer readout
Local Sidereal Time
03:50:08
Azimuth
Unknown
Elevation
Unknown
Doppler factor
Unknown
Orbital elements
Apogee altitude
878.616 km
Perigee altitude
549.977 km
Semi-major axis
7,092.433 km
Eccentricity
0.02317
Inclination
81.9252°
RAAN
117.095°
Arg. of periapsis
327.4926°
True anomaly
32.62806°
Mean anomaly
31.2173°
Eccentric anomaly
31.91915°
Mean motion
3.63371 °/min
Orbital period
99.07 mins
BSTAR
0.00052581
Loading maneuver chart data...
Computing Atmospheric mass density...

Documentation

Showing up to 5 results
|